[[{"header":{"parameterUnit":"m.s-1","parameterCategory":1,"la1":30.2991,"la2":30.254,"lo1":-89.0895,"lo2":-89.0444,"dy":0.0017,"dx":0.0017,"nx":28,"ny":28,"refTime":"2024-11-24T09:00:00:Z","depth":0,"parameterNumber":2,"parameterNumberName":"U-component_of_WINDS"},"data":[0,0,0,0,0,0,0,0,0,0,0,0,0,0,0,0,0,0,0,0,0,0,0,0,0,0,0,0,0,0,0,0,0,0,0,0,0,0,0,0,0,0,0,0,0,0,0,0,0,0,0,0,0,0,0,0,0,0,2.3266,2.3267,0,2.34,2.3401,2.3403,2.3418,2.3417,2.3416,2.3414,2.3556,2.3561,2.3566,0,0,0,0,0,0,0,0,0,0,0,0,0,2.3027,2.3031,2.3265,2.3267,2.3269,2.3399,2.3401,2.3403,2.3419,2.3417,2.3415,2.3414,2.3554,2.356,2.3566,0,0,0,0,0,0,0,0,0,0,0,0,0,2.3143,2.3033,2.3265,2.3292,2.3296,2.3399,2.3401,2.3404,2.3419,2.3417,2.3415,2.3413,2.3552,2.356,2.3567,2.3654,0,0,2.359,2.3593,0,0,0,0,0,0,0,0,2.3136,2.3152,2.3286,2.329,2.3295,2.339,2.3369,2.3488,2.3419,2.3372,2.3414,2.3412,2.3503,2.3514,2.3544,2.366,2.3667,2.3591,2.3595,2.3598,2.3601,0,0,0,0,0,0,0,2.3128,2.3146,2.3319,2.3288,2.3294,2.3299,2.3313,2.3392,2.3447,2.3376,2.3378,2.3393,2.3505,2.3537,2.3547,2.3669,2.359,2.3597,2.3602,2.3605,2.3865,2.3867,0,0,0,0,0,0,2.3115,2.3139,2.3314,2.3323,2.3209,2.3305,2.3321,2.3362,2.3446,2.3457,2.3395,2.3393,2.3525,2.3538,2.3552,2.366,2.3598,2.3605,2.361,2.3863,2.3865,2.3868,0,0,0,0,0,0,2.311,2.313,2.3309,2.3231,2.3255,2.3311,2.3357,2.3365,2.3397,2.346,2.3471,2.3417,2.3524,2.3542,2.3629,2.3665,2.3609,2.3616,2.386,2.3863,2.3867,2.3877,0,0,0,0,0,0,2.3103,2.3128,2.3161,2.3232,2.3259,2.3381,2.3359,2.3369,2.341,2.3409,2.3484,2.3494,2.3523,2.3617,2.3636,2.3675,2.3622,2.3857,2.3861,2.3866,2.3873,2.388,2.3886,0,0,0,0,0,2.3094,2.3159,2.3162,2.3183,2.33,2.3384,2.3399,2.343,2.3413,2.3446,2.3487,2.3492,2.3658,2.3626,2.3647,2.3689,2.3854,2.386,2.3865,2.387,2.3879,2.3886,0,0,0,0,0,0,2.3091,2.3168,2.3173,2.3262,2.3316,2.3386,2.3429,2.3438,2.3498,2.3496,2.3533,2.3549,2.3635,2.3671,2.3633,2.3778,2.3755,2.3765,2.3752,2.376,2.3766,2.3756,2.3628,0,0,0,0,0,2.3101,2.3161,2.3226,2.3298,2.3325,2.3372,2.341,2.3429,2.3487,2.351,2.3557,2.3614,2.3679,2.3722,2.3785,2.3878,2.3896,2.3918,2.3924,2.3929,2.3937,2.3991,2.4002,2.3886,2.3886,2.3886,0,0,2.3122,2.3171,2.3207,2.3299,2.3343,2.3406,2.3392,2.3458,2.3506,2.3521,2.3605,2.3642,2.3708,2.3799,2.3841,2.3831,2.3973,2.3936,2.3939,2.3945,2.3997,2.4008,2.4018,2.3889,2.3889,2.3888,0,0,2.3192,2.3235,2.33,2.3344,2.3411,2.3442,2.3458,2.3527,2.3551,2.3637,2.3649,2.3707,2.3818,2.3865,2.3904,2.3993,2.4,2.4012,2.4046,2.4097,2.4106,2.4115,2.4147,2.4159,2.402,2.402,2.4021,0,2.3209,2.3303,2.3333,2.34,2.3441,2.3456,2.3524,2.3566,2.365,2.3678,2.3666,2.3806,2.3852,2.3954,2.3976,2.4006,2.4027,2.4004,2.4102,2.4111,2.4119,2.4151,2.4163,2.4022,2.4021,2.4021,2.4021,0,2.3322,2.3387,2.3432,2.3512,2.3558,2.3625,2.3667,2.371,2.3725,2.3759,2.3846,2.3902,2.3977,2.4003,2.4019,2.4108,2.41,2.4094,2.4072,2.4131,2.4161,2.4174,2.4023,2.4023,2.4022,2.4022,0,0,2.3394,2.3489,2.3506,2.3542,2.3617,2.3669,2.3737,2.381,2.3846,2.3904,2.3964,2.4058,2.4053,2.4097,2.4119,2.4164,2.4232,2.4153,2.4156,2.4167,2.4335,2.4339,2.4353,2.4237,2.424,2.4242,2.433,0,2.3473,2.3593,2.3623,2.3726,2.3787,2.3803,2.3863,2.3916,2.395,2.4008,2.4045,2.4111,2.41,2.4127,2.4172,2.4214,2.4267,2.4208,2.4294,2.4297,2.4277,2.4368,2.4373,2.4453,2.4342,2.4344,2.4345,0,2.3581,2.364,2.3749,2.3816,2.3843,2.3896,2.3966,2.402,2.4082,2.4103,2.4152,2.417,2.4243,2.4217,2.4319,2.4279,2.4316,2.4342,2.4346,2.4356,2.4325,2.4381,2.448,2.4492,2.4364,2.4363,2.4361,0,2.3623,2.373,2.3809,2.384,2.3921,2.3958,2.3993,2.4053,2.4095,2.4156,2.4184,2.4254,2.4292,2.4346,2.4383,2.436,2.4483,2.4459,2.4504,2.4504,2.453,2.4528,2.4636,2.4553,2.4553,2.4552,2.4552,0,2.3708,2.3774,2.3829,2.3878,2.3954,2.3988,2.4062,2.4099,2.4152,2.4209,2.4228,2.4282,2.4326,2.4387,2.4416,2.4498,2.4515,2.4535,2.4543,2.4534,2.4532,2.4559,2.4555,2.4556,2.4555,2.4554,2.4554,0,2.3768,2.3807,2.3895,2.3964,2.3983,2.4035,2.4095,2.4145,2.4178,2.4251,2.427,2.4324,2.4397,2.4438,2.453,2.455,2.464,2.4645,2.4619,2.4623,2.4665,2.4661,2.4796,2.4816,2.4718,2.4719,2.472,0,2.3819,2.3871,2.3945,2.3984,2.402,2.4083,2.4126,2.4163,2.4207,2.4282,2.4322,2.4395,2.4456,2.4571,2.462,2.469,2.4697,2.4739,2.4708,2.4698,2.4699,2.4695,2.4701,2.4745,2.4746,2.4746,2.4747,0,2.3908,2.3925,2.3985,2.4053,2.4103,2.4158,2.4214,2.4245,2.4291,2.434,2.4414,2.4461,2.4554,2.4627,2.4702,2.4741,2.4753,2.4756,2.4771,2.4763,2.4746,2.4757,2.4635,2.4753,2.4753,2.4752,2.4752,2.4752,2.3966,2.4012,2.4072,2.4139,2.4184,2.4236,2.4285,2.4325,2.4387,2.4465,2.4483,2.4561,2.4623,2.4724,2.4765,2.4828,2.482,2.4841,2.4846,2.4851,2.4853,2.4736,2.4841,2.4841,2.4841,2.4841,2.4841,0,2.4055,2.4095,2.4156,2.4232,2.4285,2.429,2.4352,2.4397,2.4464,2.452,2.4579,2.4665,2.4736,2.479,2.4864,2.4904,2.4911,2.4922,2.492,2.4929,2.4854,2.4835,2.4915,2.4915,2.4915,2.4915,2.4915,2.4915,2.4108,2.4188,2.4212,2.4315,2.4355,2.443,2.4465,2.4513,2.4558,2.4652,2.4711,2.4746,2.4802,2.488,2.4946,2.496,2.4987,2.4997,2.5012,2.4942,2.4934,2.4926,2.4908,2.5002,2.5002,2.5082,2.5082,2.5083]},{"header":{"parameterUnit":"m.s-1","parameterCategory":1,"la1":30.2991,"la2":30.254,"lo1":-89.0895,"lo2":-89.0444,"dy":0.0017,"dx":0.0017,"nx":28,"ny":28,"refTime":"2024-11-24T09:00:00:Z","depth":0,"parameterNumber":3,"parameterNumberName":"V-component_of_WINDS"},"data":[0,0,0,0,0,0,0,0,0,0,0,0,0,0,0,0,0,0,0,0,0,0,0,0,0,0,0,0,0,0,0,0,0,0,0,0,0,0,0,0,0,0,0,0,0,0,0,0,0,0,0,0,0,0,0,0,0,0,3.319,3.3191,0,3.3268,3.3269,3.327,3.3263,3.3261,3.326,3.3259,3.3337,3.334,3.3344,0,0,0,0,0,0,0,0,0,0,0,0,0,3.3031,3.3033,3.319,3.3191,3.3192,3.3268,3.3269,3.327,3.3263,3.3261,3.326,3.3258,3.3336,3.334,3.3344,0,0,0,0,0,0,0,0,0,0,0,0,0,3.3103,3.3034,3.3189,3.3197,3.3199,3.3268,3.3269,3.3271,3.3263,3.3261,3.3259,3.3258,3.3335,3.334,3.3344,3.3411,0,0,3.3359,3.3361,0,0,0,0,0,0,0,0,3.3099,3.3109,3.3195,3.3197,3.3198,3.3254,3.3242,3.3318,3.3264,3.3239,3.3259,3.3257,3.3311,3.3318,3.3336,3.3414,3.3418,3.336,3.3362,3.3365,3.3366,0,0,0,0,0,0,0,3.3094,3.3106,3.3221,3.3196,3.3198,3.3196,3.3204,3.3256,3.3284,3.3241,3.324,3.325,3.3311,3.3332,3.3338,3.3419,3.3359,3.3364,3.3367,3.3369,3.3556,3.3558,0,0,0,0,0,0,3.3088,3.3102,3.3218,3.3223,3.3143,3.32,3.321,3.3238,3.3283,3.3289,3.3251,3.3249,3.3324,3.3332,3.3341,3.3422,3.3365,3.3369,3.3372,3.3554,3.3556,3.3559,0,0,0,0,0,0,3.3084,3.3098,3.3215,3.3162,3.3177,3.3205,3.3237,3.324,3.3261,3.3291,3.3296,3.3267,3.3323,3.3334,3.3394,3.3425,3.3371,3.3376,3.3552,3.3555,3.3558,3.3586,0,0,0,0,0,0,3.308,3.3097,3.3123,3.3163,3.318,3.3268,3.3239,3.3243,3.3269,3.3267,3.3307,3.3312,3.3323,3.3387,3.3399,3.3431,3.3379,3.3549,3.3553,3.3557,3.3582,3.3589,3.3595,0,0,0,0,0,3.3074,3.3127,3.3124,3.3138,3.3213,3.3269,3.3279,3.329,3.3272,3.3298,3.3318,3.3311,3.3419,3.3393,3.3406,3.344,3.3547,3.3552,3.3556,3.3579,3.3588,3.3595,0,0,0,0,0,0,3.3089,3.3132,3.313,3.3197,3.323,3.3268,3.3301,3.3299,3.3337,3.3333,3.3345,3.3354,3.3415,3.3433,3.3403,3.3507,3.3481,3.3488,3.3493,3.3502,3.3508,3.3503,3.3383,0,0,0,0,0,3.31,3.3143,3.3178,3.3234,3.3251,3.3273,3.3298,3.3304,3.3338,3.3351,3.3376,3.3408,3.3449,3.3476,3.3516,3.3584,3.3593,3.3614,3.3621,3.3626,3.3633,3.3671,3.3681,3.3574,3.3574,3.3574,0,0,3.3124,3.3153,3.3179,3.3238,3.3264,3.3308,3.3285,3.3332,3.3364,3.3358,3.3417,3.3436,3.3472,3.3537,3.3567,3.3554,3.3664,3.3632,3.3636,3.364,3.3677,3.3687,3.3696,3.3577,3.3577,3.3576,0,0,3.3189,3.3215,3.3265,3.3292,3.3332,3.3346,3.3358,3.3397,3.341,3.3469,3.3465,3.3503,3.3574,3.3601,3.3624,3.37,3.3695,3.3712,3.3748,3.3785,3.3794,3.3801,3.3829,3.3839,3.3719,3.3719,3.3719,0,3.3213,3.328,3.3291,3.3339,3.3365,3.3363,3.3414,3.3438,3.3489,3.3507,3.3492,3.3582,3.3606,3.3678,3.3696,3.3714,3.3729,3.3708,3.3791,3.3799,3.3806,3.3833,3.3844,3.3721,3.372,3.372,3.372,0,3.3308,3.3354,3.3389,3.344,3.347,3.3519,3.3537,3.3566,3.3569,3.3585,3.3646,3.3675,3.3721,3.3738,3.3741,3.381,3.3801,3.3789,3.3763,3.3818,3.3844,3.3854,3.3723,3.3723,3.3722,3.3722,0,0,3.3385,3.3442,3.3455,3.3478,3.3521,3.3557,3.3606,3.3652,3.3677,3.3711,3.3753,3.3813,3.3802,3.3828,3.3834,3.3866,3.3926,3.385,3.3851,3.3864,3.4005,3.4015,3.4027,3.3923,3.3925,3.3926,3.4002,0,3.3456,3.3544,3.3556,3.3633,3.3676,3.3674,3.3717,3.3748,3.3764,3.3802,3.382,3.3863,3.3845,3.386,3.3892,3.3912,3.3955,3.3906,3.3962,3.3963,3.3954,3.404,3.4051,3.4121,3.4012,3.4014,3.4015,0,3.3551,3.359,3.3672,3.371,3.3729,3.3767,3.3811,3.3847,3.3882,3.3892,3.3921,3.3923,3.3973,3.3944,3.4013,3.3981,3.4003,3.4017,3.4019,3.4026,3.3994,3.405,3.4143,3.4154,3.4031,3.4029,3.4028,0,3.3601,3.3673,3.3732,3.3752,3.3798,3.3825,3.3845,3.3879,3.3906,3.3943,3.3961,3.4003,3.4027,3.4059,3.4073,3.405,3.4142,3.4113,3.4151,3.4151,3.4171,3.417,3.4271,3.4184,3.4184,3.4184,3.4183,0,3.368,3.373,3.3755,3.3792,3.3848,3.3861,3.3916,3.3935,3.3965,3.4005,3.4005,3.4042,3.4057,3.4096,3.4106,3.4163,3.4173,3.4182,3.4184,3.4183,3.4182,3.4199,3.4195,3.4186,3.4186,3.4185,3.4185,0,3.3746,3.3764,3.3829,3.3867,3.3878,3.3918,3.3951,3.3986,3.4002,3.4052,3.4065,3.4089,3.4135,3.4152,3.4207,3.4214,3.428,3.4278,3.4269,3.427,3.4307,3.4304,3.4424,3.4441,3.4341,3.4342,3.4343,0,3.3795,3.3835,3.3878,3.3905,3.3927,3.397,3.3998,3.4011,3.4041,3.4084,3.4114,3.416,3.4198,3.4272,3.4294,3.4337,3.4336,3.4375,3.4343,3.434,3.4339,3.4337,3.4341,3.4382,3.4383,3.4384,3.4384,0,3.3882,3.389,3.393,3.3975,3.4009,3.4044,3.4078,3.41,3.4119,3.4151,3.4199,3.4229,3.4286,3.4333,3.4376,3.4396,3.4394,3.4394,3.4406,3.4405,3.4399,3.4404,3.4287,3.4392,3.4391,3.439,3.439,3.439,3.3942,3.3977,3.4014,3.4059,3.4087,3.4119,3.4154,3.4175,3.4215,3.4264,3.4269,3.4321,3.4355,3.4414,3.4436,3.4477,3.4466,3.4482,3.4486,3.449,3.4494,3.4392,3.4484,3.4484,3.4484,3.4484,3.4484,0,3.403,3.4053,3.4095,3.4144,3.418,3.4175,3.4212,3.4243,3.4289,3.4321,3.4359,3.4414,3.4459,3.4485,3.453,3.4557,3.4557,3.4569,3.4567,3.4572,3.45,3.4487,3.4568,3.4568,3.4568,3.4568,3.4568,3.4568,3.408,3.414,3.4152,3.4225,3.4247,3.4299,3.4321,3.4351,3.4377,3.4439,3.4477,3.4494,3.4524,3.4571,3.4612,3.4618,3.4635,3.4648,3.4653,3.4586,3.4577,3.4569,3.4556,3.4651,3.4651,3.4722,3.4723,3.4724]}]]